sat.trackr.live / text

‹ back to catalog

STARLINK-35624

NORAD 66166 · 2025-240W

PAYLOAD ACTIVE UNKNOWN

§ Identity

Operator
Country
US
Launch date
2025-10-25
Launch site
AFWTR
Launch vehicle
Mass (kg)
RCS (m²)

Purposes: comms

External: N2YO · Heavens-Above · Gunter

§ Orbital elements

Epoch: 2026-05-25T04:34:49.439136Z

Period
93.85 min
Inclination
53.1602°
Eccentricity
0.0001112
Mean motion
15.34368136 rev/d
Perigee alt
462.0 km
Apogee alt
463.6 km
Semi-major
6,840.9 km
B*
7.2788e-4
RAAN
66.5717°
Arg perigee
74.9757°
Mean anomaly
285.1368°
Rev number
3,371

§ Raw data

STARLINK-356241 66166U 25240W   26145.19084999  .00024271  00000+0  72788-3 0  99952 66166  53.1602  66.5717 0001112  74.9757 285.1368 15.34368136 33717

JSON: /api/v1/satellites/66166 · /tle

For live sub-satellite position, see the globe view (requires WebGL).

§ Visibility from observer

Set your observer location to see the next 7 days of passes ≥ 10°. The values pass through the URL so the page stays shareable.

No JS? Fill the form by hand. The geolocation button needs JavaScript.